Location: Recife
(8.0585°S, 34.8848°W)
Time: 10:13:49
(UTC-03:00)

Courier 1B Rocket - Pass Details

Date: 23 April 2026
Orbit: 920 x 1201 km, 28.2° (Epoch: 13 May)

Event Time Altitude Azimuth Distance (km) Brightness Sun altitude
Rises 07:59:37 0° 225° (SW) 3,679 7.6 36.6°
Reaches altitude 10° 08:03:07 10° 207° (SSW) 2,779 7.1 37.4°
Maximum altitude 08:07:44 19° 163° (SSE) 2,258 7.1 38.4°
Drops below altitude 10° 08:12:33 10° 121° (ESE) 2,921 8.0 39.5°
Sets 08:16:20 0° 103° (ESE) 3,933 8.8 40.4°
